Regional Weather Roundup
Issued by NWS

Home | Current Version | Previous Version | Graphics & Text | Print | Product List | Glossary On
Versions: 1 2 3 4 5 6 7 8 9 10 11 12 13 14 15 16 17 18 19 20 21 22 23 24 25 26 27 28 29 30 31 32 33 34 35 36 37 38 39 40 41 42 43 44 45 46 47 48 49 50
000
ASUS43 KOAX 221402
RWRNE

WEATHER ROUNDUP FOR NEBRASKA
NATIONAL WEATHER SERVICE OMAHA NE
800 AM CST SUN JAN 22 2017

NOTES: SATELLITE DATA IS BEING USED TO AUGMENT CLOUD COVER ABOVE
       12000 FEET.
       "FAIR" INDICATES FEW OR NO CLOUDS BELOW 12,000 FEET WITH NO
       SIGNIFICANT WEATHER AND/OR OBSTRUCTIONS TO VISIBILITY.

  * THESE STATIONS DO NOT REPORT WEATHER SUCH AS RAIN...SNOW OR FOG.

NEZ001>004-019>022-054>056-221500-
NEBRASKA PANHANDLE

CITY           SKY/WX    TMP DP  RH WIND       PRES   REMARKS
SCOTTSBLUFF    CLEAR     24  19  81 W8        29.86R WCI  15
ALLIANCE       CLEAR     19  16  88 W12       29.82R WCI   7
CHADRON        CLEAR     25  19  78 SW9       29.84R WCI  15
SIDNEY         CLEAR     27  21  78 NW16      29.84R WCI  15
$$

NEZ057>060-069>072-079>082-221500-
SOUTHWEST NEBRASKA

CITY           SKY/WX    TMP DP  RH WIND       PRES   REMARKS
NORTH PLATTE   CLOUDY    26  23  88 W7        29.81R WCI  18
IMPERIAL       CLOUDY    28  23  81 NW9       29.83R WCI  19
LEXINGTON      CLEAR     28  26  91 W8        29.78R WCI  20
MCCOOK         CLEAR     25  24  96 SW6       29.81R WCI  18
OGALLALA       CLEAR     28  26  90 W9        29.84R WCI  19
$$

NEZ005>010-023>029-035>040-094-221500-
NORTH CENTRAL NEBRASKA

CITY           SKY/WX    TMP DP  RH WIND       PRES   REMARKS
VALENTINE      CLOUDY    22  18  85 W7        29.79R WCI  13
AINSWORTH      CLOUDY    25  24  94 W7        29.78R WCI  18
BROKEN BOW     CLEAR     31  25  78 NW8       29.77R WCI  23
O`NEILL        CLOUDY    25  24  95 NW7       29.77R WCI  17
ORD            CLEAR     28  23  81 NW9       29.75R WCI  19
THEDFORD       PTCLDY    25  23  91 W7        29.80R WCI  18
$$

NEZ041-046>049-061>064-073>077-083>087-221500-
SOUTH CENTRAL NEBRASKA

CITY           SKY/WX    TMP DP  RH WIND       PRES   REMARKS
GRAND ISLAND   CLEAR     27  26  96 NW7       29.75R WCI  19
AURORA         CLEAR     30  29  94 NW14      29.74R WCI  20
HASTINGS       CLEAR     31  27  85 NW13      29.75R WCI  21
HEBRON         PTCLDY    32  29  91 NW6       29.74R WCI  26
HOLDREGE       CLEAR     30  28  90 NW10      29.76R WCI  21
KEARNEY *      CLEAR    N/A N/A N/A MISG        N/A
YORK           CLEAR     32  30  93 N12       29.73R WCI  23
$$

NEZ011>018-030>034-042>045-221500-
NORTHEAST NEBRASKA

CITY           SKY/WX    TMP DP  RH WIND       PRES   REMARKS
NORFOLK        CLOUDY    29  27  92 N12       29.75R WCI  19
ALBION         CLEAR     28  23  79 N5        29.76R WCI  23
BLAIR          CLOUDY    32  30  92 NW10      29.71R WCI  24
FREMONT        CLOUDY    32  31  98 NW13      29.74R WCI  22
TEKAMAH        CLOUDY    33  29  85 NW13      29.74R WCI  24
WAYNE          CLOUDY    31  30  95 N9        29.74R WCI  23
$$

NEZ050>053-065>068-078-088>093-221500-
SOUTHEAST NEBRASKA

CITY           SKY/WX    TMP DP  RH WIND       PRES   REMARKS
LINCOLN        CLOUDY    31  30  96 N9        29.75R WCI  23
OMAHA EPPLEY   CLOUDY    33  28  81 N14       29.72R WCI  23
BEATRICE       PTCLDY    27  26  98 N5        29.72R FOG     WCI  22
FALLS CITY     CLOUDY    31  30  96 N10       29.70R WCI  22
NEBRASKA CITY  CLOUDY    31  31  99 N13       29.72R WCI  22
PLATTSMOUTH    CLOUDY    32  28  86 N10G17    29.71R WCI  24
$$

NEZ044-045-051>053-067-221500-
OMAHA AREA

CITY           SKY/WX    TMP DP  RH WIND       PRES   REMARKS
OMAHA EPPLEY   CLOUDY    33  28  81 N14       29.72R WCI  23
BLAIR          CLOUDY    32  30  92 NW10      29.71R WCI  24
FREMONT        CLOUDY    32  31  98 NW13      29.74R WCI  22
MILLARD        CLOUDY    35  31  88 NW8       29.73R WCI  28
PLATTSMOUTH    CLOUDY    32  28  86 N10G17    29.71R WCI  24
WAHOO          CLOUDY    32  30  92 N17G24    29.73R WCI  21
$$



USA.gov is the U.S. government's official web portal to all federal, state and local government web resources and services.